SES-18

Last updated on Fri Dec 19 2025 00:02:54 GMT+0000 (Coordinated Universal Time)

1 55970U 23038A 25352.60482826 -.00000076 00000+0 00000+0 0 9997 2 55970 0.0252 290.5775 0002881 340.6519 290.8799 1.00271962 10293
UTC large
Height (km)
Speed (km/s)
/
Latitude / Longitude
Inclination (degrees)
Orbital Period (minutes)
Azimuth
Elevation
Range (km)
Doppler Factor

Next 0 passes for location: London (51.5072 / 0.1276)

Sorry there are no passes over London.